AirNav   Free Bose QuietComfort 20
 
 719 users online  

4J8 Treutlen County Airport
Soperton, Georgia, USA

GOING TO SOPERTON?


FAA INFORMATION EFFECTIVE 05 DECEMBER 2019

Location

FAA Identifier: 4J8
Lat/Long: 32-23-14.6000N 082-33-48.2000W
32-23.243333N 082-33.803333W
32.3873889,-82.5633889
(estimated)
Elevation: 345 ft. / 105 m (estimated)
Variation: 03W (1985)
From city: 2 miles E of SOPERTON, GA
Time zone: UTC -5 (UTC -4 during Daylight Saving Time)
Zip code: 30457

Airport Operations

Airport use: Open to the public
Activation date: 01/1971
Control tower: no
ARTCC: JACKSONVILLE CENTER
FSS: MACON FLIGHT SERVICE STATION
NOTAMs facility: MCN (NOTAM-D service available)
Attendance: UNATNDD
Wind indicator: yes
Segmented circle: no

Airport Communications

CTAF: 122.9
WX AWOS-3 at VDI (15 nm SE): 119.925 (912-538-0219)
WX AWOS-3 at SBO (17 nm NE): 133.375 (478-237-8437)

Nearby radio navigation aids

VOR radial/distance  VOR name  Freq  Var
DBNr133/17.1DUBLIN VORTAC113.1005W

 
NDB name  Hdg/Dist  Freq  Var  ID
ONYUN312/16.737206WUQN ..- --.- -.
EMANUEL COUNTY204/17.730906WEEX . . -..-
MC RAE046/23.928003WMQW -- --.- .--
HAZLEHURST014/30.841406WAZE .- --.. .
EASTMAN067/33.736604WEZM . --.. --
CLAXTON292/36.839504WCWV -.-. .-- ...-

Airport Services

Parking: tiedowns
Airframe service: NONE
Powerplant service: NONE
Bottled oxygen: NONE
Bulk oxygen: NONE

Runway Information

Runway 16/34

Dimensions: 3000 x 50 ft. / 914 x 15 m
Surface: asphalt, in good condition
RUNWAY 16  RUNWAY 34
Latitude: 32-23.466167N32-23.019333N
Longitude: 082-33.927833W082-33.677167W
Traffic pattern: leftleft
Markings: basic, in good conditionbasic, in good condition
Obstructions: 24 ft. trees, 680 ft. from runway, 150 ft. right of centerline, 20:1 slope to clear28 ft. trees, 872 ft. from runway, 53 ft. right of centerline, 24:1 slope to clear
RY 34 +4-5 FT WARNING SIGNS 100 FT FROM RY END, 75 FT LEFT

Airport Ownership and Management from official FAA records

Ownership: Publicly-owned
Owner: LANCE HOOKS
1830 MLK DRIVE
SOPERTON, GA 30457
Phone 912-529-3664
Manager: ANGIE BYRD, COUNTY MANAGER
1830 MLK DRIVE
SOPERTON, GA 30457
Phone 912-529-3664
EMERGENCY PHONE: 912-529-6841 (SOPERTON POLICE)

Airport Operational Statistics

Aircraft operations: avg 50/month *
50% transient general aviation
50% local general aviation
* for 12-month period ending 31 December 2018

Additional Remarks

FOR CD CTC JACKSONVILLE ARTCC AT 904-845-1592.

Instrument Procedures

There are no published instrument procedures at 4J8.

Some nearby airports with instrument procedures:

KVDI - Vidalia Regional Airport (15 nm SE)
KSBO - East Georgia Regional Airport (17 nm NE)
KMQW - Telfair-Wheeler Airport (24 nm SW)
KDBN - W H 'Bud' Barron Airport (24 nm NW)
KMHP - Metter Municipal Airport (24 nm E)
 
Loc | Ops | Rwys | IFR | FBO | Links
Com | Nav | Svcs | Stats | Notes
Area around 4J8 (Treutlen County Airport)
 
Road maps at: MapQuest Bing Google
 
Aerial photo
WARNING: Photo may not be current or correct
Aerial photo of 4J8 (Treutlen County Airport)
Do you have a better or more recent aerial photo of Treutlen County Airport that you would like to share? If so, please send us your photo.

 
Sectional chart

 
Airport distance calculator
Flying to Treutlen County Airport? Find the distance to fly.

From to 4J8

Sunrise and sunset
Times for 06-Dec-2019
 Local
(UTC-5)
 Zulu
(UTC)
Morning civil twilight06:5211:52
Sunrise07:1912:19
Sunset17:2422:24
Evening civil twilight17:5122:51

Current date and time
Zulu (UTC)  06-Dec-2019 06:55:18
Local (UTC-5)  06-Dec-2019 01:55:18
 
METAR
KVDI 
15nm SE 
060635Z AUTO 00000KT 10SM CLR 05/01 A3020 RMK AO2
KSBO 
17nm NE 
060630Z AUTO 00000KT 10SM CLR 04/03 A3021 RMK AO2
KDBN 
24nm NW 
060635Z AUTO 00000KT 10SM CLR 01/00 A3022 RMK AO2
KMHP 
24nm E 
060635Z AUTO 00000KT 10SM CLR 03/02 A3020 RMK AO2 T00260021
TAF
NOTAMs
Click for the latest NOTAMs
NOTAMs are issued by the DoD/FAA and will open in a separate window not controlled by AirNav.

 

 
 

Would you like to see your business listed on this page?

 If your business provides an interesting product or service to pilots, flight crews, aircraft, or users of the Treutlen County Airport, you should consider listing it here.  To start the listing process, click on the button below
 
Add a business
 

Other Pages about Treutlen County Airport

Update a link
 
Copyright © AirNav, LLC. All rights reserved. Privacy Policy  Contact